#timestamp,LO_Frequency,Hit,StdDev 
1555977615.7,286046997.5,N
1555977635.5,286046997.0,N
1555977655.4,286046996.9,N
1555977675.2,286046997.4,N
1555977695.0,286046995.8,N
1555977695.9,286046995.8,N
1555977715.8,286046993.6,Y
1555977735.6,286046998.3,P
1555977755.5,286047000.4,N
1555977775.3,286046999.2,N
1555977795.1,286047000.9,N
1555977815.9,286047001.3,N
1555977835.7,286046999.8,N
1555977855.5,286046998.5,N
1555977875.4,286046999.8,N
1555977895.2,286046999.7,N
1555977915.1,286047001.3,N
1555977916.0,286047001.3,N
1555977935.8,286047003.7,N
1555977955.6,286047002.9,N
1555977975.5,286047003.7,N
1555977995.3,286047001.5,N
1555978015.1,286047000.9,N
1555978035.9,286046998.1,N
1555978055.7,286046998.1,N
1555978075.5,286047000.6,N
1555978095.4,286047001.0,N
1555978115.2,286047002.2,N
1555978135.1,286047000.6,N
1555978136.0,286047000.6,N
1555978155.8,286047000.7,N
1555978175.6,286047000.8,N
1555978195.5,286047000.9,N
1555978215.3,286047001.2,N
1555978235.1,286046999.5,N
1555978255.9,286047001.0,N
1555978275.7,286047001.5,N
1555978295.6,286047002.6,N
1555978315.4,286047001.0,N
1555978335.2,286047001.6,N
1555978355.1,286047002.4,N
1555978356.0,286047002.4,N
1555978375.8,286047000.2,N
1555978395.6,286046998.3,N
1555978415.5,286046996.5,N
1555978435.3,286046999.5,N
1555978455.2,286046998.4,N
1555978475.9,286046999.6,N
1555978495.7,286047001.2,N
1555978515.6,286047001.6,N
1555978535.4,286047002.0,N
1555978555.2,286047001.3,N
1555978575.1,286047001.5,N
1555978576.0,286047001.5,N
1555978595.8,286047004.4,Y
1555978615.7,286046999.7,P
1555978635.5,286047000.2,N
1555978655.3,286047002.4,P
1555978675.2,286047003.1,Y
1555978695.0,286047001.3,P
1555978695.9,286047001.3,P
1555978715.8,286047004.0,P
1555978735.6,286047001.4,N
1555978755.4,286047001.6,N
1555978775.3,286047001.7,N
1555978795.1,286047003.3,Y
1555978815.8,286047000.8,P
1555978835.7,286046998.5,P
1555978855.5,286046996.5,N
1555978875.4,286047002.7,N
1555978895.2,286047001.8,N
1555978915.0,286047000.6,N
1555978915.9,286047000.6,N
1555978935.8,286046996.5,N
1555978955.6,286047000.2,N
1555978975.5,286047001.3,N
1555978995.3,286046999.8,N
1555979015.1,286047001.0,N
1555979035.9,286046999.1,N
1555979055.7,286046997.7,N
1555979075.5,286046997.2,N
1555979095.4,286047001.0,N
1555979115.2,286046998.2,N
1555979135.1,286046998.9,N
1555979136.0,286046998.9,N
1555979155.8,286047000.6,N
1555979175.6,286046998.2,N
1555979195.5,286046998.2,N
1555979215.3,286046999.4,N
1555979235.1,286046996.9,N
1555979255.9,286047000.5,N
1555979275.7,286047002.5,N
1555979295.6,286047002.5,N
1555979315.4,286047004.2,N
1555979335.2,286047004.4,N
1555979355.1,286047003.9,N
1555979356.0,286047003.9,N
1555979375.8,286046999.9,N
1555979395.6,286047001.3,N
1555979415.5,286047004.3,N
1555979435.3,286047003.0,N
1555979455.2,286047004.2,N
1555979475.9,286047001.9,N
1555979495.7,286047000.7,N
1555979515.6,286046997.3,N
1555979535.4,286046997.1,N
1555979555.2,286046998.2,N
1555979575.1,286047002.3,N
1555979576.0,286047002.3,N
1555979595.8,286047001.9,N
1555979615.7,286047001.7,N
1555979635.5,286047004.4,N
1555979655.3,286047004.3,N
1555979675.2,286047004.2,N
1555979695.0,286047002.6,N
1555979695.9,286047002.6,N
1555979715.7,286047002.4,N
1555979735.6,286046999.9,N
1555979755.4,286047004.1,N
1555979775.3,286047003.3,N
1555979795.1,286047001.6,N
1555979796.0,286047001.6,N
1555979815.8,286047003.7,N
1555979835.7,286047001.4,N
1555979855.5,286047002.2,N
1555979875.3,286046998.1,N
1555979895.2,286046999.9,N
1555979915.0,286047002.7,N
1555979915.9,286047002.7,N
1555979935.8,286046998.8,N
1555979955.6,286046998.4,N
1555979975.4,286046998.2,N
1555979995.3,286047001.7,N
1555980015.1,286047003.5,N
1555980035.9,286047006.0,N
1555980055.7,286047004.8,N
1555980075.5,286047003.6,N
1555980095.4,286047000.1,N
1555980115.2,286047001.0,N
1555980135.0,286046999.8,N
1555980135.9,286046999.8,N
1555980155.8,286047002.1,N
1555980175.6,286047004.3,N
1555980195.5,286047003.9,N
1555980215.3,286047003.9,N
1555980235.1,286047001.8,N
1555980255.9,286047004.1,N
1555980275.7,286047004.3,N
1555980295.5,286047002.0,N
1555980315.4,286047001.4,N
1555980335.2,286047003.6,N
1555980355.1,286047002.3,N
1555980356.0,286047002.3,N
1555980375.8,286047002.4,N
1555980395.6,286046998.2,N
1555980415.5,286047001.1,N
1555980435.3,286047000.0,N
1555980455.1,286047000.4,N
1555980475.9,286047000.0,N
1555980495.7,286047000.9,N
1555980515.6,286046998.1,N
1555980565.4,286046998.6,E
1555980575.3,286046998.9,N
1555980595.2,286047000.7,P
1555980615.0,286046998.4,N
1555980615.9,286046998.4,N
1555980635.8,286046998.4,N
1555980655.6,286046998.3,N
1555980675.4,286046998.3,N
1555980695.3,286046999.4,N
1555980715.1,286046996.5,Y
1555980735.8,286046996.5,P
1555980755.7,286046997.1,N
1555980775.5,286046996.8,P
1555980795.4,286046999.6,N
1555980815.2,286046997.5,N
1555980835.0,286046997.4,N
1555980835.9,286046997.4,N
1555980855.8,286046997.5,N
1555980875.6,286046996.5,Y
1555980895.5,286047000.8,P
1555980915.3,286046998.1,N
1555980935.1,286047001.2,N
1555980955.9,286046998.3,N
1555980975.7,286046998.4,N
1555980995.5,286046999.1,N
1555981015.4,286046997.4,N
1555981035.2,286046998.0,N
1555981055.0,286046996.8,N
1555981055.9,286046996.8,N
1555981075.8,286046996.8,N
1555981095.6,286046998.8,N
1555981115.5,286046997.9,N
1555981135.3,286046996.9,N
1555981155.1,286046999.1,N
1555981175.9,286046999.5,N
1555981195.7,286046996.6,N
